Regional Weather Roundup
Issued by NWS Sterling, VA

Home | Current Version | Previous Version | Graphics & Text | Print | Product List | Glossary On
Versions: 1 2 3 4 5 6 7 8 9 10 11 12 13 14 15 16 17 18 19 20 21 22 23 24 25 26 27 28
000
ASUS41 KLWX 312311
RWRLWX

REGIONAL WEATHER ROUNDUP
NATIONAL WEATHER SERVICE BALTIMORE MD/WASHINGTON DC
700 PM EDT WED AUG 31 2016

Note: "FAIR" indicates few or no clouds below 12,000 feet
with no significant weather and/or obstructions to visibility.
 TC=TEMPERATURE CELSIUS

 * =Non NWS site. Station does not report precipitation (e.g. rain,
    snow, etc.), thunder, or fog.

DCZ001-MDZ009-015-VAZ040>042-051-053>054-010000-
WASHINGTON METRO

CITY           SKY/WX    TMP DP  RH WIND       PRES   REMARKS
WASHINGTON NAT MOCLDY    87  70  56 S9        29.86S HX  92
DULLES         PTCLDY    86  67  52 S8        29.86S
ANDREWS AFB    CLEAR     85  69  58 S9        29.86S
FT BELVOIR     CLEAR     85  69  58 SE6       29.86S
QUANTICO       PTCLDY    87  73  62 S12       29.86S HX  94
COLLEGE PARK*  PTCLDY    86  66  51 S3        29.85R
LEESBURG*      CLEAR     90  68  48 CALM      29.87S HX  93
MANASSAS*      PTCLDY    84  70  61 S6        29.86S
GAITHERSBURG*  CLEAR     86  66  51 S5        29.90S

$$

MDZ006>007-011-014-010000-
BALTIMORE METRO

CITY           SKY/WX    TMP DP  RH WIND       PRES   REMARKS
BWI AIRPORT    PTCLDY    83  70  64 S3        29.86S
MD SCIENCE CTR   N/A     86  69  56 MISG      29.86S HX  90
MARTIN STATE   PTCLDY    84  73  70 SE8       29.87S HX  91
ANNAPOLIS      CLEAR     84  71  65 S10       29.86S
FORT MEADE*    CLEAR     81  70  69 SE5       29.88S

$$

MDZ012-015-019>023-010000-
MARYLAND EASTERN SHORE

CITY           SKY/WX    TMP DP  RH WIND       PRES   REMARKS
OCEAN CITY     CLEAR     81  69  67 VRB5      29.90F
SALISBURY      PTCLDY    81  68  64 SE5       29.89S
BAY BRIDGE AP* CLEAR     86  70  58 MISG      29.86S HX  90
CAMBRIDGE*     CLEAR     82  64  54 S3        29.87S
EASTON*          N/A     90  72  55 SW7       29.91  HX  96

$$

MDZ017>025-010000-
SOUTHERN MARYLAND

CITY           SKY/WX    TMP DP  RH WIND       PRES   REMARKS
PATUXENT RIVER PTCLDY    83  67  58 S8        29.87F
ST INIGOES     CLOUDY    83  66  56 SE6       29.87S
LEONARDTOWN*   CLOUDY    81  68  65 SE6       29.90R

$$

MDZ003>005-010000-
NORTH CENTRAL MARYLAND

CITY           SKY/WX    TMP DP  RH WIND       PRES   REMARKS
FREDERICK*     CLEAR     86  73  66 VRB3      29.87F HX  93
HAGERSTOWN APT CLOUDY    82  64  54 N8        29.88S

$$

MDZ501>502-010000-
WESTERN MARYLAND

CITY           SKY/WX    TMP DP  RH WIND       PRES   REMARKS
OAKLAND*       CLOUDY    70  55  60 CALM      30.02S
CUMBERLAND*    CLEAR     86  52  30 N6        29.92S

$$

VAZ025>031-010000-
SHENANDOAH VALLEY

CITY           SKY/WX    TMP DP  RH WIND       PRES   REMARKS
WINCHESTER*    CLEAR     86  64  48 S3        29.88R
FRONT ROYAL*   FAIR      86  72  62 CALM      29.87R HX  92
LURAY*         FAIR      88  64  45 CALM      29.89R
NEW MARKET*    FAIR     N/A N/A N/A CALM      29.87S
STAUNTON*      CLOUDY    77  70  78 SW3       29.94S
WAYNESBORO*    MOCLDY    77  69  76 CALM      29.94F

$$

WVZ021-048>050-054>055-010000-
EASTERN WEST VIRGINIA PANHANDLE

CITY           SKY/WX    TMP DP  RH WIND       PRES   REMARKS
MARTINSBURG    CLEAR     87  67  51 VRB5      29.86F HX  90
PETERSBURG*    CLOUDY    82  62  50 CALM      29.91R

$$

VAZ036>039-050-010000-
CENTRAL FOOTHILLS

CITY           SKY/WX    TMP DP  RH WIND       PRES   REMARKS
CHARLOTTESVILL LGT RAIN  83  70  64 VRB5      29.90R
CULPEPER*      CLOUDY    79  70  75 S9G17     29.89R
ORANGE*          N/A     82  72  69 NW7       29.90R
GORDONSVILLE*  FAIR      82  73  74 CALM      29.88R
WARRENTON*     FAIR      87  66  48 S7        29.87R

$$

VAZ055>057-010000-
NORTH AND CENTRAL PIEDMONT

CITY           SKY/WX    TMP DP  RH WIND       PRES   REMARKS
FREDERICKSBRG* CLEAR     86  72  62 S6        29.86R HX  92
STAFFORD*      CLEAR     84  69  60 S3        29.91R

$$

NCZ024-NYZ072-PAZ021-071-VAZ022-071-010000-
OTHER REGIONAL OBSERVATIONS

CITY           SKY/WX    TMP DP  RH WIND       PRES   REMARKS
NEW YORK CITY  CLOUDY    80  66  62 VRB6      29.90S
PHILADELPHIA   CLOUDY    87  64  46 SW13      29.87R
PITTSBURGH     CLOUDY    72  65  78 N9        29.95R
ROANOKE        CLOUDY    76  71  85 SE5       29.95S
RICHMOND       MOCLDY    84  69  60 S8        29.88S
RALEIGH        MOCLDY    85  68  56 S7        29.92R THUNDER

$$

ANZ530>537-010000-
MARINE OBSERVATIONS

STATION/POSITION TIME  TEMP    WIND        PRES
                       AIR SEA DIR/SP/G
                 (UTC) (F)     (DEG/KT/KT) (MB)
THOMAS PT LIGHT  2300   84 83  180/ 15/ 16 1012.3F
BALT KEY BRIDGE  2230   84     140/ 13/ 15 1010.7
COVE POINT       2230   83     190/ 13/ 14 1012.0
LEWISETTA        2230   84 85  180/ 10/ 12 1011.4
SOLOMONS ISLAND  2230   84 85  150/ 10/ 12   N/A
PINEY POINT      2230          170/ 13/ 15   N/A

$$





USA.gov is the U.S. government's official web portal to all federal, state and local government web resources and services.